Weather History for Rugby, ND

Change the Weather History Date:

Thursday, March 21, 2013

  Actual Average Record
Temperature  
Mean Temperature 0 °F -  
Max Temperature 12 °F 39 °F 59 °F (1985)
Min Temperature -13 °F 19 °F -13 °F (2013)
Degree Days  
Heating Degree Days 66    
Moisture  
Dew Point -4 °F    
Average Humidity 81    
Maximum Humidity 92    
Minimum Humidity 72    
Precipitation  
Precipitation 0.00 in - - ()
Sea Level Pressure  
Sea Level Pressure 30.06 in    
Wind  
Wind Speed 9 mph (ESE)    
Max Wind Speed 15 mph    
Max Gust Speed -    
Visibility 10 miles    
Events      
Averages and records for this station are not official NWS values.
T = Trace of Precipitation, MM = Missing Value Source: NWS Daily Summary

Daily Weather History Graph

Daily Weather History Graph

Search for Another Location

Airport:

Trip Planner

Search our weather history database for the weather conditions in past years. The results will help you decide how hot, cold, wet, or windy it might be!

Date:

Astronomy

Mar. 21, 2013 Rise Set
Actual Time 7:40 AM CDT 7:54 PM CDT
Civil Twilight 7:09 AM CDT 8:26 PM CDT
Nautical Twilight 6:32 AM CDT 9:03 PM CDT
Astronomical Twilight 5:54 AM CDT 9:41 PM CDT
Moon 2:03 PM CDT (3/21) 4:26 AM CDT (3/21)
Length of Visible Light 13h 17m
Length of Day
12h 14m
Waxing Gibbous, 69% of the Moon is Illuminated
Mar 21
Waxing Gibbous
Mar 27
Full
Apr 2
Last Quarter
Apr 10
New
Apr 18
First Quarter

Hourly Weather History & Observations

Time (CDT) Temp. Windchill Dew Point Humidity Pressure Visibility Wind Dir Wind Speed Gust Speed Precip Events Conditions
12:35 AM -7.6 °F -22.1 °F -11.2 °F 84% 30.12 in 10.0 mi ESE 6.9 mph - N/A   Clear
1:15 AM -7.6 °F -22.1 °F -13.0 °F 77% 30.12 in 10.0 mi ESE 6.9 mph - N/A   Clear
1:35 AM -9.4 °F -18.6 °F -13.0 °F 84% 30.11 in 10.0 mi ESE 3.5 mph - N/A   Clear
1:55 AM -7.6 °F -18.8 °F -11.2 °F 84% 30.11 in 10.0 mi East 4.6 mph - N/A   Clear
2:15 AM -13.0 °F -30.0 °F -16.6 °F 84% 30.09 in 10.0 mi East 8.1 mph - N/A   Clear
2:35 AM -9.4 °F -22.7 °F -13.0 °F 84% 30.09 in 10.0 mi ESE 5.8 mph - N/A   Clear
2:55 AM -11.2 °F -24.8 °F -16.6 °F 77% 30.08 in 10.0 mi East 5.8 mph - N/A   Clear
3:15 AM -11.2 °F -29.0 °F -16.6 °F 77% 30.08 in 10.0 mi East 9.2 mph - N/A   Clear
3:35 AM - - - N/A% 30.07 in 10.0 mi East 11.5 mph - N/A   Clear
3:55 AM -7.6 °F -25.7 °F -11.2 °F 84% 30.07 in 10.0 mi East 10.4 mph - N/A   Clear
4:15 AM -9.4 °F -26.8 °F -13.0 °F 84% 30.07 in 10.0 mi ESE 9.2 mph - N/A   Clear
4:35 AM -7.6 °F -27.5 °F -11.2 °F 84% 30.06 in 10.0 mi East 12.7 mph - N/A   Clear
4:55 AM -7.6 °F -26.6 °F -11.2 °F 84% 30.06 in 10.0 mi East 11.5 mph - N/A   Clear
5:15 AM -7.6 °F -25.7 °F -13.0 °F 77% 30.06 in 10.0 mi East 10.4 mph - N/A   Clear
5:35 AM -7.6 °F -25.7 °F -13.0 °F 77% 30.06 in 10.0 mi East 10.4 mph - N/A   Clear
5:55 AM -7.6 °F -27.5 °F -11.2 °F 84% 30.05 in 10.0 mi East 12.7 mph - N/A   Clear
6:15 AM -7.6 °F -25.7 °F - N/A% 30.05 in 10.0 mi East 10.4 mph - N/A   Clear
6:35 AM -9.4 °F -25.6 °F -13.0 °F 84% 30.06 in 10.0 mi ESE 8.1 mph - N/A   Clear
6:55 AM -9.4 °F -27.9 °F -13.0 °F 84% 30.06 in 10.0 mi ESE 10.4 mph - N/A   Clear
7:15 AM -11.2 °F -29.0 °F -16.6 °F 77% 30.05 in 10.0 mi East 9.2 mph - N/A   Clear
7:55 AM -11.2 °F -27.8 °F -16.6 °F 77% 30.06 in 10.0 mi ESE 8.1 mph - N/A   Clear
8:15 AM -11.2 °F -30.1 °F -14.8 °F 84% 30.06 in 9.0 mi ESE 10.4 mph - N/A   Clear
8:35 AM -11.2 °F -29.0 °F -16.6 °F 77% 30.06 in 10.0 mi East 9.2 mph - N/A   Clear
8:55 AM -9.4 °F -24.3 °F -13.0 °F 84% 30.06 in 10.0 mi ESE 6.9 mph - N/A   Clear
9:15 AM -9.4 °F -27.9 °F -13.0 °F 84% 30.05 in 10.0 mi East 10.4 mph - N/A   Clear
9:35 AM -7.6 °F -23.4 °F -11.2 °F 84% 30.05 in 10.0 mi ESE 8.1 mph - N/A   Clear
9:55 AM -5.8 °F -21.2 °F -9.4 °F 84% 30.05 in 10.0 mi East 8.1 mph - N/A   Clear
10:15 AM -2.2 °F -16.8 °F -7.6 °F 78% 30.06 in 10.0 mi ESE 8.1 mph - N/A   Clear
10:35 AM -0.4 °F -17.6 °F -5.8 °F 78% 30.06 in 10.0 mi East 11.5 mph - N/A   Clear
10:55 AM -0.4 °F -15.7 °F -4.0 °F 85% 30.06 in 10.0 mi ESE 9.2 mph - N/A   Clear
11:15 AM 1.4 °F -14.5 °F -2.2 °F 85% 30.06 in 10.0 mi ESE 10.4 mph - N/A   Clear
11:35 AM 1.4 °F -13.5 °F -2.2 °F 85% 30.06 in 10.0 mi East 9.2 mph - N/A   Clear
11:55 AM 3.2 °F -11.3 °F -2.2 °F 78% 30.06 in 10.0 mi East 9.2 mph - N/A   Clear
12:15 PM 5.0 °F -10.8 °F -0.4 °F 78% 30.05 in 10.0 mi East 11.5 mph - N/A   Clear
12:35 PM 5.0 °F -10.0 °F -0.4 °F 78% 30.05 in 10.0 mi ESE 10.4 mph - N/A   Clear
12:55 PM 6.8 °F -8.6 °F -0.4 °F 72% 30.05 in 10.0 mi ESE 11.5 mph - N/A   Clear
1:15 PM 6.8 °F -9.3 °F 1.4 °F 79% 30.06 in 10.0 mi ESE 12.7 mph - N/A   Clear
1:35 PM 6.8 °F -8.6 °F 1.4 °F 79% 30.05 in 10.0 mi ESE 11.5 mph - N/A   Clear
1:55 PM 6.8 °F -7.8 °F 1.4 °F 79% 30.05 in 10.0 mi ESE 10.4 mph - N/A   Clear
2:15 PM 8.6 °F -6.3 °F 3.2 °F 79% 30.04 in 10.0 mi ESE 11.5 mph - N/A   Clear
2:35 PM 8.6 °F -7.0 °F 5.0 °F 85% 30.04 in 10.0 mi ESE 12.7 mph - N/A   Clear
2:55 PM 10.4 °F -4.1 °F 5.0 °F 79% 30.04 in 10.0 mi ESE 11.5 mph - N/A   Clear
3:15 PM 10.4 °F -4.1 °F 5.0 °F 79% 30.03 in 10.0 mi ESE 11.5 mph - N/A   Clear
3:35 PM 10.4 °F -4.8 °F 5.0 °F 79% 30.03 in 10.0 mi ESE 12.7 mph - N/A   Clear
3:55 PM 10.4 °F -4.8 °F 5.0 °F 79% 30.03 in 10.0 mi ESE 12.7 mph - N/A   Clear
4:15 PM 12.2 °F -1.8 °F 5.0 °F 73% 30.03 in 10.0 mi ESE 11.5 mph - N/A   Clear
4:35 PM 12.2 °F -3.1 °F 5.0 °F 73% 30.02 in 10.0 mi East 13.8 mph - N/A   Clear
4:55 PM 10.4 °F -5.4 °F 6.8 °F 85% 30.02 in 10.0 mi East 13.8 mph - N/A   Clear
5:15 PM 10.4 °F -4.8 °F 5.0 °F 79% 30.03 in 10.0 mi East 12.7 mph - N/A   Clear
5:35 PM 10.4 °F -4.1 °F 6.8 °F 85% 30.04 in 10.0 mi East 11.5 mph - N/A   Clear
5:55 PM 10.4 °F -3.3 °F 5.0 °F 79% 30.04 in 10.0 mi East 10.4 mph - N/A   Clear
6:15 PM 10.4 °F -4.1 °F 5.0 °F 79% 30.04 in 10.0 mi East 11.5 mph - N/A   Clear
6:35 PM 8.6 °F -6.3 °F 5.0 °F 85% 30.04 in 10.0 mi East 11.5 mph - N/A   Clear
6:55 PM 8.6 °F -6.3 °F 5.0 °F 85% 30.04 in 10.0 mi East 11.5 mph - N/A   Clear
7:15 PM 8.6 °F -5.5 °F 3.2 °F 79% 30.04 in 10.0 mi East 10.4 mph - N/A   Clear
7:35 PM 6.8 °F -8.6 °F 1.4 °F 79% 30.05 in 10.0 mi East 11.5 mph - N/A   Clear
7:55 PM 6.8 °F -8.6 °F 1.4 °F 79% 30.05 in 10.0 mi East 11.5 mph - N/A   Clear
8:15 PM 5.0 °F -10.8 °F 1.4 °F 85% 30.06 in 10.0 mi East 11.5 mph - N/A   Clear
8:35 PM 5.0 °F -11.6 °F -0.4 °F 78% 30.06 in 10.0 mi East 12.7 mph - N/A   Clear
8:55 PM 5.0 °F -10.8 °F -0.4 °F 78% 30.06 in 10.0 mi East 11.5 mph - N/A   Clear
9:15 PM 5.0 °F -10.0 °F 1.4 °F 85% 30.07 in 10.0 mi East 10.4 mph - N/A   Clear
9:55 PM 5.0 °F -13.0 °F -0.4 °F 78% 30.07 in 10.0 mi East 15.0 mph - N/A   Clear
10:15 PM 3.2 °F -15.3 °F -0.4 °F 85% 30.07 in 10.0 mi East 15.0 mph - N/A   Clear
10:35 PM 3.2 °F -13.1 °F -0.4 °F 85% 30.07 in 10.0 mi East 11.5 mph - N/A   Clear
10:55 PM -0.4 °F -15.7 °F -2.2 °F 92% 30.08 in 10.0 mi ESE 9.2 mph - N/A   Clear
11:15 PM -0.4 °F -15.7 °F -4.0 °F 85% 30.08 in 10.0 mi ESE 9.2 mph - N/A   Clear
11:35 PM -0.4 °F -16.7 °F -4.0 °F 85% 30.08 in 10.0 mi East 10.4 mph - N/A   Clear
11:55 PM -0.4 °F -16.7 °F -4.0 °F 85% 30.08 in 10.0 mi East 10.4 mph - N/A   Clear